Wetterdaten: Montag, 04.11.2019
Datum Zeit Temp. A. Feuchte A. Luftdruck Regen Wind Richtung Richtung Sonnenschein ET UV Solar Taupunkt Windchill Windböen
04.11.2019 00:00 7,3 °C 87 % 992,7 hPa 0,0 mm 5,4 km/h (1 Bft) S-SW 211 ° 0 min 0,000 mm 0,0 UV-I 0 W/m² 5,3 °C 6,6 °C 8,0 km/h (2 Bft)
04.11.2019 00:01 7,3 °C 87 % 992,7 hPa 0,0 mm 5,2 km/h (1 Bft) S-SW 205 ° 0 min 0,000 mm 0,0 UV-I 0 W/m² 5,3 °C 6,6 °C 12,9 km/h (3 Bft)
04.11.2019 00:02 7,3 °C 87 % 992,7 hPa 0,0 mm 8,0 km/h (2 Bft) W-SW 242 ° 0 min 0,000 mm 0,0 UV-I 0 W/m² 5,3 °C 5,8 °C 12,9 km/h (3 Bft)
04.11.2019 00:03 7,3 °C 87 % 992,8 hPa 0,0 mm 5,1 km/h (1 Bft) S-SW 209 ° 0 min 0,000 mm 0,0 UV-I 0 W/m² 5,3 °C 6,7 °C 9,7 km/h (2 Bft)
04.11.2019 00:04 7,4 °C 87 % 992,7 hPa 0,0 mm 4,9 km/h (1 Bft) W-SW 238 ° 0 min 0,000 mm 0,0 UV-I 0 W/m² 5,4 °C 6,8 °C 8,0 km/h (2 Bft)
04.11.2019 00:05 7,4 °C 87 % 992,8 hPa 0,0 mm 7,0 km/h (2 Bft) W-SW 258 ° 0 min 0,000 mm 0,0 UV-I 0 W/m² 5,4 °C 6,2 °C 11,3 km/h (2 Bft)
04.11.2019 00:06 7,4 °C 87 % 992,8 hPa 0,0 mm 5,6 km/h (1 Bft) W 259 ° 0 min 0,000 mm 0,0 UV-I 0 W/m² 5,4 °C 6,6 °C 11,3 km/h (2 Bft)
04.11.2019 00:07 7,4 °C 87 % 992,8 hPa 0,0 mm 4,5 km/h (1 Bft) SW 229 ° 0 min 0,000 mm 0,0 UV-I 0 W/m² 5,4 °C 7,4 °C 9,7 km/h (2 Bft)
04.11.2019 00:08 7,4 °C 87 % 992,8 hPa 0,0 mm 6,4 km/h (2 Bft) S-SW 205 ° 0 min 0,000 mm 0,0 UV-I 0 W/m² 5,4 °C 6,4 °C 11,3 km/h (2 Bft)
04.11.2019 00:09 7,4 °C 87 % 992,7 hPa 0,0 mm 7,7 km/h (2 Bft) W-SW 249 ° 0 min 0,000 mm 0,0 UV-I 0 W/m² 5,4 °C 6,0 °C 11,3 km/h (2 Bft)
04.11.2019 00:10 7,4 °C 86 % 992,8 hPa 0,0 mm 6,4 km/h (2 Bft) S-SW 199 ° 0 min 0,000 mm 0,0 UV-I 0 W/m² 5,2 °C 6,4 °C 11,3 km/h (2 Bft)
04.11.2019 00:11 7,4 °C 86 % 992,8 hPa 0,0 mm 8,0 km/h (2 Bft) W-SW 252 ° 0 min 0,000 mm 0,0 UV-I 0 W/m² 5,2 °C 6,0 °C 11,3 km/h (2 Bft)
04.11.2019 00:12 7,5 °C 87 % 992,8 hPa 0,0 mm 4,1 km/h (1 Bft) W 259 ° 0 min 0,000 mm 0,0 UV-I 0 W/m² 5,5 °C 7,5 °C 6,4 km/h (2 Bft)
04.11.2019 00:13 7,4 °C 87 % 992,9 hPa 0,0 mm 9,0 km/h (2 Bft) W-SW 242 ° 0 min 0,000 mm 0,0 UV-I 0 W/m² 5,4 °C 5,7 °C 14,5 km/h (3 Bft)
04.11.2019 00:14 7,4 °C 87 % 992,9 hPa 0,0 mm 6,8 km/h (2 Bft) SW 223 ° 0 min 0,000 mm 0,0 UV-I 0 W/m² 5,4 °C 6,3 °C 9,7 km/h (2 Bft)
04.11.2019 00:15 7,4 °C 86 % 992,9 hPa 0,0 mm 5,5 km/h (1 Bft) W-SW 254 ° 0 min 0,000 mm 0,0 UV-I 0 W/m² 5,2 °C 6,6 °C 8,0 km/h (2 Bft)
04.11.2019 00:16 7,5 °C 86 % 992,9 hPa 0,0 mm 7,6 km/h (2 Bft) W 274 ° 0 min 0,000 mm 0,0 UV-I 0 W/m² 5,3 °C 6,2 °C 16,1 km/h (3 Bft)
04.11.2019 00:17 7,5 °C 86 % 992,9 hPa 0,0 mm 11,5 km/h (2 Bft) W-SW 254 ° 0 min 0,000 mm 0,0 UV-I 0 W/m² 5,3 °C 5,4 °C 16,1 km/h (3 Bft)
04.11.2019 00:18 7,5 °C 86 % 992,9 hPa 0,0 mm 6,2 km/h (2 Bft) W 265 ° 0 min 0,000 mm 0,0 UV-I 0 W/m² 5,3 °C 6,5 °C 12,9 km/h (3 Bft)
04.11.2019 00:19 7,5 °C 86 % 993,0 hPa 0,0 mm 7,6 km/h (2 Bft) W-SW 237 ° 0 min 0,000 mm 0,0 UV-I 0 W/m² 5,3 °C 6,2 °C 14,5 km/h (3 Bft)
04.11.2019 00:20 7,5 °C 86 % 993,1 hPa 0,0 mm 9,5 km/h (2 Bft) W 267 ° 0 min 0,000 mm 0,0 UV-I 0 W/m² 5,3 °C 5,7 °C 19,3 km/h (3 Bft)
04.11.2019 00:21 7,5 °C 86 % 993,1 hPa 0,0 mm 10,5 km/h (2 Bft) W 281 ° 0 min 0,000 mm 0,0 UV-I 0 W/m² 5,3 °C 5,5 °C 16,1 km/h (3 Bft)
04.11.2019 00:22 7,6 °C 86 % 993,1 hPa 0,0 mm 7,9 km/h (2 Bft) W 262 ° 0 min 0,000 mm 0,0 UV-I 0 W/m² 5,4 °C 6,2 °C 14,5 km/h (3 Bft)
04.11.2019 00:23 7,6 °C 86 % 993,1 hPa 0,0 mm 8,6 km/h (2 Bft) W-SW 249 ° 0 min 0,000 mm 0,0 UV-I 0 W/m² 5,4 °C 6,1 °C 14,5 km/h (3 Bft)
04.11.2019 00:24 7,5 °C 86 % 993,1 hPa 0,0 mm 9,7 km/h (2 Bft) W-SW 250 ° 0 min 0,000 mm 0,0 UV-I 0 W/m² 5,3 °C 5,7 °C 16,1 km/h (3 Bft)
04.11.2019 00:25 7,5 °C 86 % 993,2 hPa 0,0 mm 7,8 km/h (2 Bft) W 261 ° 0 min 0,000 mm 0,0 UV-I 0 W/m² 5,3 °C 6,1 °C 14,5 km/h (3 Bft)
04.11.2019 00:26 7,5 °C 86 % 993,2 hPa 0,0 mm 7,6 km/h (2 Bft) W 266 ° 0 min 0,000 mm 0,0 UV-I 0 W/m² 5,3 °C 6,2 °C 12,9 km/h (3 Bft)
04.11.2019 00:27 7,5 °C 86 % 993,2 hPa 0,0 mm 7,1 km/h (2 Bft) W 273 ° 0 min 0,000 mm 0,0 UV-I 0 W/m² 5,3 °C 6,3 °C 12,9 km/h (3 Bft)
04.11.2019 00:28 7,4 °C 86 % 993,2 hPa 0,0 mm 7,8 km/h (2 Bft) S-SW 199 ° 0 min 0,000 mm 0,0 UV-I 0 W/m² 5,2 °C 6,0 °C 17,7 km/h (3 Bft)
04.11.2019 00:29 7,5 °C 86 % 993,2 hPa 0,0 mm 9,1 km/h (2 Bft) W 265 ° 0 min 0,000 mm 0,0 UV-I 0 W/m² 5,3 °C 5,8 °C 14,5 km/h (3 Bft)
04.11.2019 00:30 7,4 °C 86 % 993,2 hPa 0,0 mm 9,7 km/h (2 Bft) SW 232 ° 0 min 0,000 mm 0,0 UV-I 0 W/m² 5,2 °C 5,6 °C 12,9 km/h (3 Bft)
04.11.2019 00:31 7,4 °C 86 % 993,2 hPa 0,0 mm 4,8 km/h (1 Bft) W 275 ° 0 min 0,000 mm 0,0 UV-I 0 W/m² 5,2 °C 6,9 °C 9,7 km/h (2 Bft)
04.11.2019 00:32 7,4 °C 86 % 993,2 hPa 0,0 mm 11,4 km/h (2 Bft) W 261 ° 0 min 0,000 mm 0,0 UV-I 0 W/m² 5,2 °C 5,3 °C 16,1 km/h (3 Bft)
04.11.2019 00:33 7,4 °C 86 % 993,2 hPa 0,0 mm 11,4 km/h (2 Bft) W-SW 258 ° 0 min 0,000 mm 0,0 UV-I 0 W/m² 5,2 °C 5,3 °C 14,5 km/h (3 Bft)
04.11.2019 00:34 7,4 °C 87 % 993,1 hPa 0,0 mm 11,0 km/h (2 Bft) W 261 ° 0 min 0,000 mm 0,0 UV-I 0 W/m² 5,4 °C 5,3 °C 14,5 km/h (3 Bft)
04.11.2019 00:35 7,4 °C 86 % 993,1 hPa 0,0 mm 9,8 km/h (2 Bft) W-SW 254 ° 0 min 0,000 mm 0,0 UV-I 0 W/m² 5,2 °C 5,6 °C 12,9 km/h (3 Bft)
04.11.2019 00:36 7,4 °C 86 % 993,1 hPa 0,0 mm 7,9 km/h (2 Bft) W 281 ° 0 min 0,000 mm 0,0 UV-I 0 W/m² 5,2 °C 6,0 °C 14,5 km/h (3 Bft)
04.11.2019 00:37 7,4 °C 86 % 993,1 hPa 0,0 mm 8,6 km/h (2 Bft) W 260 ° 0 min 0,000 mm 0,0 UV-I 0 W/m² 5,2 °C 5,8 °C 12,9 km/h (3 Bft)
04.11.2019 00:38 7,4 °C 87 % 993,1 hPa 0,0 mm 7,4 km/h (2 Bft) W 260 ° 0 min 0,000 mm 0,0 UV-I 0 W/m² 5,4 °C 6,1 °C 14,5 km/h (3 Bft)
04.11.2019 00:39 7,3 °C 87 % 993,1 hPa 0,0 mm 8,2 km/h (2 Bft) SW 224 ° 0 min 0,000 mm 0,0 UV-I 0 W/m² 5,3 °C 5,8 °C 12,9 km/h (3 Bft)
04.11.2019 00:40 7,3 °C 87 % 993,1 hPa 0,0 mm 5,4 km/h (1 Bft) W-SW 257 ° 0 min 0,000 mm 0,0 UV-I 0 W/m² 5,3 °C 6,6 °C 11,3 km/h (2 Bft)
04.11.2019 00:41 7,3 °C 87 % 993,1 hPa 0,0 mm 13,3 km/h (3 Bft) W 273 ° 0 min 0,000 mm 0,0 UV-I 0 W/m² 5,3 °C 4,8 °C 17,7 km/h (3 Bft)
04.11.2019 00:42 7,3 °C 87 % 993,2 hPa 0,0 mm 7,8 km/h (2 Bft) W-SW 239 ° 0 min 0,000 mm 0,0 UV-I 0 W/m² 5,3 °C 5,9 °C 16,1 km/h (3 Bft)
04.11.2019 00:43 7,3 °C 87 % 993,2 hPa 0,0 mm 6,9 km/h (2 Bft) SW 231 ° 0 min 0,000 mm 0,0 UV-I 0 W/m² 5,3 °C 6,1 °C 11,3 km/h (2 Bft)
04.11.2019 00:44 7,3 °C 87 % 993,2 hPa 0,0 mm 8,6 km/h (2 Bft) W-SW 250 ° 0 min 0,000 mm 0,0 UV-I 0 W/m² 5,3 °C 5,7 °C 12,9 km/h (3 Bft)
04.11.2019 00:45 7,3 °C 87 % 993,2 hPa 0,0 mm 4,8 km/h (1 Bft) W 263 ° 0 min 0,000 mm 0,0 UV-I 0 W/m² 5,3 °C 6,8 °C 6,4 km/h (2 Bft)
04.11.2019 00:46 7,3 °C 87 % 993,2 hPa 0,0 mm 8,5 km/h (2 Bft) W 259 ° 0 min 0,000 mm 0,0 UV-I 0 W/m² 5,3 °C 5,7 °C 14,5 km/h (3 Bft)
04.11.2019 00:47 7,3 °C 87 % 993,2 hPa 0,0 mm 7,1 km/h (2 Bft) W 273 ° 0 min 0,000 mm 0,0 UV-I 0 W/m² 5,3 °C 6,1 °C 11,3 km/h (2 Bft)
04.11.2019 00:48 7,3 °C 87 % 993,3 hPa 0,0 mm 7,2 km/h (2 Bft) SW 226 ° 0 min 0,000 mm 0,0 UV-I 0 W/m² 5,3 °C 6,0 °C 9,7 km/h (2 Bft)
04.11.2019 00:49 7,3 °C 87 % 993,4 hPa 0,0 mm 6,7 km/h (2 Bft) W 267 ° 0 min 0,000 mm 0,0 UV-I 0 W/m² 5,3 °C 6,2 °C 9,7 km/h (2 Bft)
04.11.2019 00:50 7,3 °C 87 % 993,3 hPa 0,0 mm 9,1 km/h (2 Bft) W-SW 257 ° 0 min 0,000 mm 0,0 UV-I 0 W/m² 5,3 °C 5,6 °C 11,3 km/h (2 Bft)
04.11.2019 00:51 7,3 °C 87 % 993,3 hPa 0,0 mm 4,5 km/h (1 Bft) W 259 ° 0 min 0,000 mm 0,0 UV-I 0 W/m² 5,3 °C 7,3 °C 8,0 km/h (2 Bft)
04.11.2019 00:52 7,3 °C 87 % 993,3 hPa 0,0 mm 5,0 km/h (1 Bft) W-SW 255 ° 0 min 0,000 mm 0,0 UV-I 0 W/m² 5,3 °C 6,7 °C 9,7 km/h (2 Bft)
04.11.2019 00:53 7,2 °C 87 % 993,3 hPa 0,0 mm 6,0 km/h (2 Bft) W 261 ° 0 min 0,000 mm 0,0 UV-I 0 W/m² 5,2 °C 6,3 °C 11,3 km/h (2 Bft)
04.11.2019 00:54 7,2 °C 87 % 993,3 hPa 0,0 mm 7,5 km/h (2 Bft) SW 225 ° 0 min 0,000 mm 0,0 UV-I 0 W/m² 5,2 °C 5,8 °C 12,9 km/h (3 Bft)
04.11.2019 00:55 7,3 °C 87 % 993,4 hPa 0,0 mm 4,9 km/h (1 Bft) W 261 ° 0 min 0,000 mm 0,0 UV-I 0 W/m² 5,3 °C 6,7 °C 11,3 km/h (2 Bft)
04.11.2019 00:56 7,2 °C 87 % 993,4 hPa 0,0 mm 9,6 km/h (2 Bft) S-SW 211 ° 0 min 0,000 mm 0,0 UV-I 0 W/m² 5,2 °C 5,4 °C 14,5 km/h (3 Bft)
04.11.2019 00:57 7,2 °C 87 % 993,4 hPa 0,0 mm 3,6 km/h (1 Bft) S-SW 197 ° 0 min 0,000 mm 0,0 UV-I 0 W/m² 5,2 °C 7,2 °C 8,0 km/h (2 Bft)
04.11.2019 00:58 7,2 °C 87 % 993,4 hPa 0,0 mm 1,6 km/h (1 Bft) S-SW 197 ° 0 min 0,000 mm 0,0 UV-I 0 W/m² 5,2 °C 7,2 °C 3,2 km/h (1 Bft)
04.11.2019 00:59 7,2 °C 87 % 993,4 hPa 0,0 mm 9,1 km/h (2 Bft) SW 224 ° 0 min 0,000 mm 0,0 UV-I 0 W/m² 5,2 °C 5,5 °C 14,5 km/h (3 Bft)
04.11.2019 01:00 7,2 °C 87 % 993,5 hPa 0,0 mm 9,3 km/h (2 Bft) W-SW 253 ° 0 min 0,000 mm 0,0 UV-I 0 W/m² 5,2 °C 5,4 °C 14,5 km/h (3 Bft)
04.11.2019 01:01 7,2 °C 87 % 993,5 hPa 0,0 mm 3,2 km/h (1 Bft) W-SW 252 ° 0 min 0,025 mm 0,0 UV-I 0 W/m² 5,2 °C 7,2 °C 4,8 km/h (1 Bft)
04.11.2019 01:02 7,2 °C 87 % 993,5 hPa 0,0 mm 2,3 km/h (1 Bft) W-SW 253 ° 0 min 0,000 mm 0,0 UV-I 0 W/m² 5,2 °C 7,2 °C 3,2 km/h (1 Bft)
04.11.2019 01:03 7,2 °C 87 % 993,5 hPa 0,0 mm 6,1 km/h (2 Bft) W 262 ° 0 min 0,000 mm 0,0 UV-I 0 W/m² 5,2 °C 6,2 °C 9,7 km/h (2 Bft)
04.11.2019 01:04 7,2 °C 87 % 993,5 hPa 0,0 mm 4,4 km/h (1 Bft) W-SW 242 ° 0 min 0,000 mm 0,0 UV-I 0 W/m² 5,2 °C 7,2 °C 8,0 km/h (2 Bft)
04.11.2019 01:05 7,2 °C 87 % 993,5 hPa 0,0 mm 6,9 km/h (2 Bft) W-SW 237 ° 0 min 0,000 mm 0,0 UV-I 0 W/m² 5,2 °C 6,0 °C 11,3 km/h (2 Bft)
04.11.2019 01:06 7,2 °C 86 % 993,5 hPa 0,0 mm 6,2 km/h (2 Bft) W-NW 284 ° 0 min 0,000 mm 0,0 UV-I 0 W/m² 5,0 °C 6,2 °C 11,3 km/h (2 Bft)
04.11.2019 01:07 7,2 °C 86 % 993,5 hPa 0,0 mm 7,3 km/h (2 Bft) W-SW 254 ° 0 min 0,000 mm 0,0 UV-I 0 W/m² 5,0 °C 5,9 °C 11,3 km/h (2 Bft)
04.11.2019 01:08 7,2 °C 86 % 993,5 hPa 0,0 mm 7,3 km/h (2 Bft) S-SW 213 ° 0 min 0,000 mm 0,0 UV-I 0 W/m² 5,0 °C 5,9 °C 11,3 km/h (2 Bft)
04.11.2019 01:09 7,2 °C 86 % 993,5 hPa 0,0 mm 11,2 km/h (2 Bft) W 267 ° 0 min 0,000 mm 0,0 UV-I 0 W/m² 5,0 °C 5,1 °C 16,1 km/h (3 Bft)
04.11.2019 01:10 7,2 °C 86 % 993,5 hPa 0,0 mm 8,4 km/h (2 Bft) SW 229 ° 0 min 0,000 mm 0,0 UV-I 0 W/m² 5,0 °C 5,6 °C 16,1 km/h (3 Bft)
04.11.2019 01:11 7,2 °C 86 % 993,5 hPa 0,0 mm 4,8 km/h (1 Bft) W-SW 250 ° 0 min 0,000 mm 0,0 UV-I 0 W/m² 5,0 °C 6,7 °C 11,3 km/h (2 Bft)
04.11.2019 01:12 7,2 °C 86 % 993,5 hPa 0,0 mm 6,4 km/h (2 Bft) W-SW 254 ° 0 min 0,000 mm 0,0 UV-I 0 W/m² 5,0 °C 6,1 °C 11,3 km/h (2 Bft)
04.11.2019 01:13 7,3 °C 86 % 993,5 hPa 0,0 mm 3,7 km/h (1 Bft) S-SW 194 ° 0 min 0,000 mm 0,0 UV-I 0 W/m² 5,1 °C 7,3 °C 6,4 km/h (2 Bft)
04.11.2019 01:14 7,2 °C 86 % 993,6 hPa 0,0 mm 4,8 km/h (1 Bft) W 261 ° 0 min 0,000 mm 0,0 UV-I 0 W/m² 5,0 °C 6,7 °C 14,5 km/h (3 Bft)
04.11.2019 01:15 7,2 °C 86 % 993,6 hPa 0,0 mm 7,3 km/h (2 Bft) SW 219 ° 0 min 0,000 mm 0,0 UV-I 0 W/m² 5,0 °C 5,9 °C 16,1 km/h (3 Bft)
04.11.2019 01:16 7,2 °C 86 % 993,6 hPa 0,0 mm 10,5 km/h (2 Bft) W-SW 246 ° 0 min 0,000 mm 0,0 UV-I 0 W/m² 5,0 °C 5,2 °C 14,5 km/h (3 Bft)
04.11.2019 01:17 7,2 °C 86 % 993,5 hPa 0,0 mm 8,4 km/h (2 Bft) W-NW 290 ° 0 min 0,000 mm 0,0 UV-I 0 W/m² 5,0 °C 5,6 °C 17,7 km/h (3 Bft)
04.11.2019 01:18 7,3 °C 85 % 993,5 hPa 0,0 mm 9,4 km/h (2 Bft) W-SW 254 ° 0 min 0,000 mm 0,0 UV-I 0 W/m² 4,9 °C 5,5 °C 17,7 km/h (3 Bft)
04.11.2019 01:19 7,2 °C 86 % 993,5 hPa 0,0 mm 7,8 km/h (2 Bft) W 279 ° 0 min 0,000 mm 0,0 UV-I 0 W/m² 5,0 °C 5,8 °C 14,5 km/h (3 Bft)
04.11.2019 01:20 7,2 °C 85 % 993,6 hPa 0,0 mm 5,5 km/h (1 Bft) W 262 ° 0 min 0,000 mm 0,0 UV-I 0 W/m² 4,9 °C 6,4 °C 9,7 km/h (2 Bft)
04.11.2019 01:21 7,2 °C 85 % 993,7 hPa 0,0 mm 9,0 km/h (2 Bft) W-SW 252 ° 0 min 0,000 mm 0,0 UV-I 0 W/m² 4,9 °C 5,5 °C 12,9 km/h (3 Bft)
04.11.2019 01:22 7,2 °C 85 % 993,6 hPa 0,0 mm 6,6 km/h (2 Bft) W 265 ° 0 min 0,000 mm 0,0 UV-I 0 W/m² 4,9 °C 6,1 °C 12,9 km/h (3 Bft)
04.11.2019 01:23 7,2 °C 85 % 993,7 hPa 0,0 mm 4,9 km/h (1 Bft) W-SW 254 ° 0 min 0,000 mm 0,0 UV-I 0 W/m² 4,9 °C 6,6 °C 9,7 km/h (2 Bft)
04.11.2019 01:24 7,2 °C 85 % 993,7 hPa 0,0 mm 6,2 km/h (2 Bft) W 279 ° 0 min 0,000 mm 0,0 UV-I 0 W/m² 4,9 °C 6,2 °C 11,3 km/h (2 Bft)
04.11.2019 01:25 7,2 °C 85 % 993,7 hPa 0,0 mm 8,1 km/h (2 Bft) W 267 ° 0 min 0,000 mm 0,0 UV-I 0 W/m² 4,9 °C 5,7 °C 12,9 km/h (3 Bft)
04.11.2019 01:26 7,2 °C 85 % 993,7 hPa 0,0 mm 8,9 km/h (2 Bft) W 267 ° 0 min 0,000 mm 0,0 UV-I 0 W/m² 4,9 °C 5,5 °C 11,3 km/h (2 Bft)
04.11.2019 01:27 7,2 °C 85 % 993,7 hPa 0,0 mm 9,2 km/h (2 Bft) SW 235 ° 0 min 0,000 mm 0,0 UV-I 0 W/m² 4,9 °C 5,4 °C 14,5 km/h (3 Bft)
04.11.2019 01:28 7,2 °C 85 % 993,7 hPa 0,0 mm 6,6 km/h (2 Bft) W-SW 238 ° 0 min 0,000 mm 0,0 UV-I 0 W/m² 4,9 °C 6,1 °C 12,9 km/h (3 Bft)
04.11.2019 01:29 7,2 °C 85 % 993,7 hPa 0,0 mm 8,0 km/h (2 Bft) W 267 ° 0 min 0,000 mm 0,0 UV-I 0 W/m² 4,9 °C 5,7 °C 11,3 km/h (2 Bft)
04.11.2019 01:30 7,2 °C 85 % 993,7 hPa 0,0 mm 6,8 km/h (2 Bft) W-SW 243 ° 0 min 0,000 mm 0,0 UV-I 0 W/m² 4,9 °C 6,0 °C 11,3 km/h (2 Bft)
04.11.2019 01:31 7,2 °C 85 % 993,7 hPa 0,0 mm 10,2 km/h (2 Bft) W 260 ° 0 min 0,000 mm 0,0 UV-I 0 W/m² 4,9 °C 5,2 °C 14,5 km/h (3 Bft)
04.11.2019 01:32 7,2 °C 85 % 993,7 hPa 0,0 mm 10,1 km/h (2 Bft) W 270 ° 0 min 0,000 mm 0,0 UV-I 0 W/m² 4,9 °C 5,3 °C 14,5 km/h (3 Bft)
04.11.2019 01:33 7,2 °C 85 % 993,7 hPa 0,0 mm 7,7 km/h (2 Bft) S-SW 210 ° 0 min 0,000 mm 0,0 UV-I 0 W/m² 4,9 °C 5,8 °C 12,9 km/h (3 Bft)
04.11.2019 01:34 7,2 °C 85 % 993,8 hPa 0,0 mm 4,1 km/h (1 Bft) W 263 ° 0 min 0,000 mm 0,0 UV-I 0 W/m² 4,9 °C 7,2 °C 11,3 km/h (2 Bft)
04.11.2019 01:35 7,1 °C 85 % 993,8 hPa 0,0 mm 9,8 km/h (2 Bft) W 259 ° 0 min 0,000 mm 0,0 UV-I 0 W/m² 4,8 °C 5,2 °C 16,1 km/h (3 Bft)
04.11.2019 01:36 7,1 °C 85 % 993,8 hPa 0,0 mm 6,6 km/h (2 Bft) NW 304 ° 0 min 0,000 mm 0,0 UV-I 0 W/m² 4,8 °C 6,0 °C 14,5 km/h (3 Bft)
04.11.2019 01:37 7,1 °C 84 % 993,8 hPa 0,0 mm 9,2 km/h (2 Bft) W 259 ° 0 min 0,000 mm 0,0 UV-I 0 W/m² 4,6 °C 5,3 °C 17,7 km/h (3 Bft)
04.11.2019 01:38 7,1 °C 84 % 993,8 hPa 0,0 mm 12,6 km/h (3 Bft) SW 216 ° 0 min 0,000 mm 0,0 UV-I 0 W/m² 4,6 °C 4,7 °C 19,3 km/h (3 Bft)
04.11.2019 01:39 7,1 °C 84 % 993,8 hPa 0,0 mm 13,6 km/h (3 Bft) SW 233 ° 0 min 0,000 mm 0,0 UV-I 0 W/m² 4,6 °C 4,5 °C 17,7 km/h (3 Bft)
04.11.2019 01:40 7,1 °C 84 % 993,9 hPa 0,0 mm 5,6 km/h (1 Bft) SW 225 ° 0 min 0,000 mm 0,0 UV-I 0 W/m² 4,6 °C 6,3 °C 9,7 km/h (2 Bft)
04.11.2019 01:41 7,1 °C 84 % 993,8 hPa 0,0 mm 7,0 km/h (2 Bft) W 265 ° 0 min 0,000 mm 0,0 UV-I 0 W/m² 4,6 °C 5,9 °C 11,3 km/h (2 Bft)
04.11.2019 01:42 7,1 °C 84 % 993,9 hPa 0,0 mm 7,0 km/h (2 Bft) SW 233 ° 0 min 0,000 mm 0,0 UV-I 0 W/m² 4,6 °C 5,9 °C 12,9 km/h (3 Bft)
04.11.2019 01:43 7,1 °C 84 % 993,8 hPa 0,0 mm 5,8 km/h (2 Bft) W-SW 246 ° 0 min 0,000 mm 0,0 UV-I 0 W/m² 4,6 °C 6,2 °C 9,7 km/h (2 Bft)
04.11.2019 01:44 7,1 °C 84 % 993,9 hPa 0,0 mm 7,4 km/h (2 Bft) W 273 ° 0 min 0,000 mm 0,0 UV-I 0 W/m² 4,6 °C 5,7 °C 14,5 km/h (3 Bft)
04.11.2019 01:45 7,1 °C 84 % 993,8 hPa 0,0 mm 6,3 km/h (2 Bft) S-SW 193 ° 0 min 0,000 mm 0,0 UV-I 0 W/m² 4,6 °C 6,0 °C 12,9 km/h (3 Bft)
04.11.2019 01:46 7,1 °C 84 % 993,8 hPa 0,0 mm 5,2 km/h (1 Bft) W-SW 252 ° 0 min 0,000 mm 0,0 UV-I 0 W/m² 4,6 °C 6,4 °C 14,5 km/h (3 Bft)
04.11.2019 01:47 7,1 °C 84 % 993,8 hPa 0,0 mm 10,9 km/h (2 Bft) W-SW 257 ° 0 min 0,000 mm 0,0 UV-I 0 W/m² 4,6 °C 5,0 °C 16,1 km/h (3 Bft)
04.11.2019 01:48 7,1 °C 84 % 993,8 hPa 0,0 mm 9,9 km/h (2 Bft) W 262 ° 0 min 0,000 mm 0,0 UV-I 0 W/m² 4,6 °C 5,2 °C 11,3 km/h (2 Bft)
04.11.2019 01:49 7,1 °C 84 % 993,8 hPa 0,0 mm 7,3 km/h (2 Bft) S-SW 209 ° 0 min 0,000 mm 0,0 UV-I 0 W/m² 4,6 °C 5,8 °C 12,9 km/h (3 Bft)
04.11.2019 01:50 7,2 °C 84 % 993,8 hPa 0,0 mm 5,0 km/h (1 Bft) S-SW 213 ° 0 min 0,000 mm 0,0 UV-I 0 W/m² 4,7 °C 6,6 °C 8,0 km/h (2 Bft)
04.11.2019 01:51 7,1 °C 84 % 993,7 hPa 0,0 mm 8,6 km/h (2 Bft) S-SW 196 ° 0 min 0,000 mm 0,0 UV-I 0 W/m² 4,6 °C 5,5 °C 11,3 km/h (2 Bft)
04.11.2019 01:52 7,1 °C 83 % 993,8 hPa 0,0 mm 8,0 km/h (2 Bft) W 268 ° 0 min 0,000 mm 0,0 UV-I 0 W/m² 4,4 °C 5,6 °C 12,9 km/h (3 Bft)
04.11.2019 01:53 7,2 °C 83 % 993,8 hPa 0,0 mm 8,7 km/h (2 Bft) W-SW 244 ° 0 min 0,000 mm 0,0 UV-I 0 W/m² 4,5 °C 5,6 °C 17,7 km/h (3 Bft)
04.11.2019 01:54 7,2 °C 83 % 993,8 hPa 0,0 mm 9,6 km/h (2 Bft) SW 223 ° 0 min 0,000 mm 0,0 UV-I 0 W/m² 4,5 °C 5,4 °C 14,5 km/h (3 Bft)
04.11.2019 01:55 7,2 °C 83 % 993,7 hPa 0,0 mm 7,5 km/h (2 Bft) SW 234 ° 0 min 0,000 mm 0,0 UV-I 0 W/m² 4,5 °C 5,8 °C 11,3 km/h (2 Bft)
04.11.2019 01:56 7,2 °C 83 % 993,7 hPa 0,0 mm 9,9 km/h (2 Bft) S-SW 204 ° 0 min 0,000 mm 0,0 UV-I 0 W/m² 4,5 °C 5,3 °C 14,5 km/h (3 Bft)
04.11.2019 01:57 7,2 °C 83 % 993,7 hPa 0,0 mm 10,3 km/h (2 Bft) W-SW 238 ° 0 min 0,000 mm 0,0 UV-I 0 W/m² 4,5 °C 5,2 °C 17,7 km/h (3 Bft)
04.11.2019 01:58 7,2 °C 83 % 993,7 hPa 0,0 mm 12,1 km/h (2 Bft) W-SW 245 ° 0 min 0,000 mm 0,0 UV-I 0 W/m² 4,5 °C 4,9 °C 19,3 km/h (3 Bft)
04.11.2019 01:59 7,2 °C 83 % 993,7 hPa 0,0 mm 8,2 km/h (2 Bft) SW 224 ° 0 min 0,000 mm 0,0 UV-I 0 W/m² 4,5 °C 5,7 °C 12,9 km/h (3 Bft)
04.11.2019 02:00 7,2 °C 83 % 993,8 hPa 0,0 mm 8,7 km/h (2 Bft) SW 225 ° 0 min 0,000 mm 0,0 UV-I 0 W/m² 4,5 °C 5,6 °C 17,7 km/h (3 Bft)
04.11.2019 02:01 7,2 °C 83 % 993,8 hPa 0,0 mm 11,0 km/h (2 Bft) SW 229 ° 0 min 0,026 mm 0,0 UV-I 0 W/m² 4,5 °C 5,1 °C 17,7 km/h (3 Bft)
04.11.2019 02:02 7,2 °C 83 % 993,8 hPa 0,0 mm 5,0 km/h (1 Bft) W 264 ° 0 min 0,000 mm 0,0 UV-I 0 W/m² 4,5 °C 6,6 °C 8,0 km/h (2 Bft)
04.11.2019 02:03 7,2 °C 83 % 993,8 hPa 0,0 mm 6,6 km/h (2 Bft) SW 225 ° 0 min 0,000 mm 0,0 UV-I 0 W/m² 4,5 °C 6,1 °C 14,5 km/h (3 Bft)
04.11.2019 02:04 7,2 °C 83 % 993,8 hPa 0,0 mm 7,0 km/h (2 Bft) S-SW 195 ° 0 min 0,000 mm 0,0 UV-I 0 W/m² 4,5 °C 6,0 °C 16,1 km/h (3 Bft)
04.11.2019 02:05 7,2 °C 83 % 993,8 hPa 0,0 mm 5,1 km/h (1 Bft) W 265 ° 0 min 0,000 mm 0,0 UV-I 0 W/m² 4,5 °C 6,5 °C 11,3 km/h (2 Bft)
04.11.2019 02:06 7,2 °C 83 % 993,9 hPa 0,0 mm 9,5 km/h (2 Bft) W 263 ° 0 min 0,000 mm 0,0 UV-I 0 W/m² 4,5 °C 5,4 °C 17,7 km/h (3 Bft)
04.11.2019 02:07 7,2 °C 83 % 993,9 hPa 0,0 mm 9,3 km/h (2 Bft) SW 229 ° 0 min 0,000 mm 0,0 UV-I 0 W/m² 4,5 °C 5,4 °C 16,1 km/h (3 Bft)
04.11.2019 02:08 7,2 °C 83 % 993,9 hPa 0,0 mm 9,1 km/h (2 Bft) W-SW 256 ° 0 min 0,000 mm 0,0 UV-I 0 W/m² 4,5 °C 5,5 °C 12,9 km/h (3 Bft)
04.11.2019 02:09 7,2 °C 83 % 993,9 hPa 0,0 mm 10,7 km/h (2 Bft) W 277 ° 0 min 0,000 mm 0,0 UV-I 0 W/m² 4,5 °C 5,2 °C 20,9 km/h (4 Bft)
04.11.2019 02:10 7,2 °C 83 % 993,9 hPa 0,0 mm 9,7 km/h (2 Bft) W-SW 252 ° 0 min 0,000 mm 0,0 UV-I 0 W/m² 4,5 °C 5,3 °C 16,1 km/h (3 Bft)
04.11.2019 02:11 7,2 °C 83 % 993,9 hPa 0,0 mm 6,2 km/h (2 Bft) W-SW 254 ° 0 min 0,000 mm 0,0 UV-I 0 W/m² 4,5 °C 6,2 °C 12,9 km/h (3 Bft)
04.11.2019 02:12 7,2 °C 83 % 994,0 hPa 0,0 mm 7,6 km/h (2 Bft) W-SW 239 ° 0 min 0,000 mm 0,0 UV-I 0 W/m² 4,5 °C 5,8 °C 12,9 km/h (3 Bft)
04.11.2019 02:13 7,2 °C 83 % 994,0 hPa 0,0 mm 4,6 km/h (1 Bft) W-SW 241 ° 0 min 0,000 mm 0,0 UV-I 0 W/m² 4,5 °C 6,7 °C 6,4 km/h (2 Bft)
04.11.2019 02:14 7,2 °C 84 % 993,9 hPa 0,0 mm 8,5 km/h (2 Bft) SW 236 ° 0 min 0,000 mm 0,0 UV-I 0 W/m² 4,7 °C 5,6 °C 14,5 km/h (3 Bft)
04.11.2019 02:15 7,2 °C 84 % 993,9 hPa 0,0 mm 10,7 km/h (2 Bft) W-SW 249 ° 0 min 0,000 mm 0,0 UV-I 0 W/m² 4,7 °C 5,2 °C 14,5 km/h (3 Bft)
04.11.2019 02:16 7,2 °C 84 % 994,0 hPa 0,0 mm 7,6 km/h (2 Bft) W-SW 244 ° 0 min 0,000 mm 0,0 UV-I 0 W/m² 4,7 °C 5,8 °C 11,3 km/h (2 Bft)
04.11.2019 02:17 7,2 °C 84 % 993,9 hPa 0,0 mm 9,4 km/h (2 Bft) SW 217 ° 0 min 0,000 mm 0,0 UV-I 0 W/m² 4,7 °C 5,4 °C 17,7 km/h (3 Bft)
04.11.2019 02:18 7,2 °C 83 % 993,9 hPa 0,0 mm 6,1 km/h (2 Bft) S-SW 205 ° 0 min 0,000 mm 0,0 UV-I 0 W/m² 4,5 °C 6,2 °C 11,3 km/h (2 Bft)
04.11.2019 02:19 7,2 °C 83 % 993,9 hPa 0,0 mm 7,1 km/h (2 Bft) SW 219 ° 0 min 0,000 mm 0,0 UV-I 0 W/m² 4,5 °C 5,9 °C 14,5 km/h (3 Bft)
04.11.2019 02:20 7,2 °C 83 % 993,9 hPa 0,0 mm 8,0 km/h (2 Bft) W 267 ° 0 min 0,000 mm 0,0 UV-I 0 W/m² 4,5 °C 5,7 °C 16,1 km/h (3 Bft)
04.11.2019 02:21 7,2 °C 83 % 993,9 hPa 0,0 mm 8,2 km/h (2 Bft) W-SW 246 ° 0 min 0,000 mm 0,0 UV-I 0 W/m² 4,5 °C 5,7 °C 11,3 km/h (2 Bft)
04.11.2019 02:22 7,2 °C 83 % 994,0 hPa 0,0 mm 4,2 km/h (1 Bft) W-SW 243 ° 0 min 0,000 mm 0,0 UV-I 0 W/m² 4,5 °C 7,2 °C 6,4 km/h (2 Bft)
04.11.2019 02:23 7,3 °C 83 % 994,0 hPa 0,0 mm 5,2 km/h (1 Bft) W-SW 240 ° 0 min 0,000 mm 0,0 UV-I 0 W/m² 4,6 °C 6,6 °C 9,7 km/h (2 Bft)
04.11.2019 02:24 7,3 °C 83 % 994,0 hPa 0,0 mm 8,9 km/h (2 Bft) W-SW 254 ° 0 min 0,000 mm 0,0 UV-I 0 W/m² 4,6 °C 5,6 °C 14,5 km/h (3 Bft)
04.11.2019 02:25 7,2 °C 83 % 994,0 hPa 0,0 mm 6,2 km/h (2 Bft) W-SW 242 ° 0 min 0,000 mm 0,0 UV-I 0 W/m² 4,5 °C 6,2 °C 9,7 km/h (2 Bft)
04.11.2019 02:26 7,3 °C 83 % 993,9 hPa 0,0 mm 4,4 km/h (1 Bft) S-SW 212 ° 0 min 0,000 mm 0,0 UV-I 0 W/m² 4,6 °C 7,3 °C 6,4 km/h (2 Bft)
04.11.2019 02:27 7,3 °C 83 % 993,9 hPa 0,0 mm 9,7 km/h (2 Bft) W 268 ° 0 min 0,000 mm 0,0 UV-I 0 W/m² 4,6 °C 5,5 °C 20,9 km/h (4 Bft)
04.11.2019 02:28 7,3 °C 83 % 993,9 hPa 0,0 mm 9,1 km/h (2 Bft) SW 229 ° 0 min 0,000 mm 0,0 UV-I 0 W/m² 4,6 °C 5,6 °C 17,7 km/h (3 Bft)
04.11.2019 02:29 7,3 °C 83 % 993,9 hPa 0,0 mm 6,5 km/h (2 Bft) S-SW 208 ° 0 min 0,000 mm 0,0 UV-I 0 W/m² 4,6 °C 6,2 °C 8,0 km/h (2 Bft)
04.11.2019 02:30 7,3 °C 82 % 994,0 hPa 0,0 mm 6,9 km/h (2 Bft) W-NW 298 ° 0 min 0,000 mm 0,0 UV-I 0 W/m² 4,4 °C 6,1 °C 9,7 km/h (2 Bft)
04.11.2019 02:31 7,3 °C 82 % 994,0 hPa 0,0 mm 4,6 km/h (1 Bft) W 261 ° 0 min 0,000 mm 0,0 UV-I 0 W/m² 4,4 °C 6,8 °C 11,3 km/h (2 Bft)
04.11.2019 02:32 7,3 °C 82 % 994,0 hPa 0,0 mm 4,8 km/h (1 Bft) SW 235 ° 0 min 0,000 mm 0,0 UV-I 0 W/m² 4,4 °C 6,8 °C 8,0 km/h (2 Bft)
04.11.2019 02:33 7,3 °C 82 % 994,1 hPa 0,0 mm 3,6 km/h (1 Bft) W 265 ° 0 min 0,000 mm 0,0 UV-I 0 W/m² 4,4 °C 7,3 °C 6,4 km/h (2 Bft)
04.11.2019 02:34 7,3 °C 82 % 994,1 hPa 0,0 mm 7,1 km/h (2 Bft) W-SW 238 ° 0 min 0,000 mm 0,0 UV-I 0 W/m² 4,4 °C 6,1 °C 16,1 km/h (3 Bft)
04.11.2019 02:35 7,3 °C 82 % 994,0 hPa 0,0 mm 9,6 km/h (2 Bft) S-SW 200 ° 0 min 0,000 mm 0,0 UV-I 0 W/m² 4,4 °C 5,5 °C 16,1 km/h (3 Bft)
04.11.2019 02:36 7,3 °C 82 % 994,1 hPa 0,0 mm 4,7 km/h (1 Bft) W-SW 258 ° 0 min 0,000 mm 0,0 UV-I 0 W/m² 4,4 °C 6,8 °C 9,7 km/h (2 Bft)
04.11.2019 02:37 7,3 °C 82 % 994,1 hPa 0,0 mm 4,2 km/h (1 Bft) S-SW 206 ° 0 min 0,000 mm 0,0 UV-I 0 W/m² 4,4 °C 7,3 °C 6,4 km/h (2 Bft)
04.11.2019 02:38 7,3 °C 82 % 994,1 hPa 0,0 mm 3,6 km/h (1 Bft) W-NW 284 ° 0 min 0,000 mm 0,0 UV-I 0 W/m² 4,4 °C 7,3 °C 6,4 km/h (2 Bft)
04.11.2019 02:39 7,3 °C 82 % 994,1 hPa 0,0 mm 4,1 km/h (1 Bft) SW 232 ° 0 min 0,000 mm 0,0 UV-I 0 W/m² 4,4 °C 7,3 °C 6,4 km/h (2 Bft)
04.11.2019 02:40 7,3 °C 82 % 994,1 hPa 0,0 mm 5,4 km/h (1 Bft) S-SW 200 ° 0 min 0,000 mm 0,0 UV-I 0 W/m² 4,4 °C 6,6 °C 11,3 km/h (2 Bft)
04.11.2019 02:41 7,3 °C 82 % 994,2 hPa 0,0 mm 6,8 km/h (2 Bft) W-SW 244 ° 0 min 0,000 mm 0,0 UV-I 0 W/m² 4,4 °C 6,1 °C 14,5 km/h (3 Bft)
04.11.2019 02:42 7,3 °C 82 % 994,2 hPa 0,0 mm 6,0 km/h (2 Bft) W-SW 257 ° 0 min 0,000 mm 0,0 UV-I 0 W/m² 4,4 °C 6,4 °C 11,3 km/h (2 Bft)
04.11.2019 02:43 7,3 °C 82 % 994,2 hPa 0,0 mm 6,1 km/h (2 Bft) S 172 ° 0 min 0,000 mm 0,0 UV-I 0 W/m² 4,4 °C 6,3 °C 12,9 km/h (3 Bft)
04.11.2019 02:44 7,3 °C 82 % 994,2 hPa 0,0 mm 5,6 km/h (1 Bft) S-SW 208 ° 0 min 0,000 mm 0,0 UV-I 0 W/m² 4,4 °C 6,5 °C 8,0 km/h (2 Bft)
04.11.2019 02:45 7,3 °C 82 % 994,2 hPa 0,0 mm 4,9 km/h (1 Bft) SW 219 ° 0 min 0,000 mm 0,0 UV-I 0 W/m² 4,4 °C 6,7 °C 6,4 km/h (2 Bft)
04.11.2019 02:46 7,3 °C 81 % 994,2 hPa 0,0 mm 4,6 km/h (1 Bft) S 181 ° 0 min 0,000 mm 0,0 UV-I 0 W/m² 4,3 °C 6,8 °C 11,3 km/h (2 Bft)
04.11.2019 02:47 7,3 °C 81 % 994,2 hPa 0,0 mm 7,2 km/h (2 Bft) W-SW 240 ° 0 min 0,000 mm 0,0 UV-I 0 W/m² 4,3 °C 6,0 °C 11,3 km/h (2 Bft)
04.11.2019 02:48 7,3 °C 81 % 994,2 hPa 0,0 mm 4,9 km/h (1 Bft) S 181 ° 0 min 0,000 mm 0,0 UV-I 0 W/m² 4,3 °C 6,7 °C 6,4 km/h (2 Bft)
04.11.2019 02:49 7,3 °C 81 % 994,2 hPa 0,0 mm 4,9 km/h (1 Bft) S-SW 200 ° 0 min 0,000 mm 0,0 UV-I 0 W/m² 4,3 °C 6,7 °C 11,3 km/h (2 Bft)
04.11.2019 02:50 7,3 °C 81 % 994,2 hPa 0,0 mm 6,1 km/h (2 Bft) W-SW 257 ° 0 min 0,000 mm 0,0 UV-I 0 W/m² 4,3 °C 6,3 °C 12,9 km/h (3 Bft)
04.11.2019 02:51 7,3 °C 81 % 994,2 hPa 0,0 mm 5,6 km/h (1 Bft) S 185 ° 0 min 0,000 mm 0,0 UV-I 0 W/m² 4,3 °C 6,5 °C 12,9 km/h (3 Bft)
04.11.2019 02:52 7,3 °C 81 % 994,2 hPa 0,0 mm 5,0 km/h (1 Bft) SW 215 ° 0 min 0,000 mm 0,0 UV-I 0 W/m² 4,3 °C 6,7 °C 11,3 km/h (2 Bft)
04.11.2019 02:53 7,3 °C 81 % 994,2 hPa 0,0 mm 3,5 km/h (1 Bft) S-SW 194 ° 0 min 0,000 mm 0,0 UV-I 0 W/m² 4,3 °C 7,3 °C 6,4 km/h (2 Bft)
04.11.2019 02:54 7,3 °C 81 % 994,2 hPa 0,0 mm 3,8 km/h (1 Bft) SW 215 ° 0 min 0,000 mm 0,0 UV-I 0 W/m² 4,3 °C 7,3 °C 6,4 km/h (2 Bft)
04.11.2019 02:55 7,3 °C 81 % 994,2 hPa 0,0 mm 3,8 km/h (1 Bft) SW 225 ° 0 min 0,000 mm 0,0 UV-I 0 W/m² 4,3 °C 7,3 °C 4,8 km/h (1 Bft)
04.11.2019 02:56 7,3 °C 81 % 994,3 hPa 0,0 mm 3,2 km/h (1 Bft) SW 217 ° 0 min 0,000 mm 0,0 UV-I 0 W/m² 4,3 °C 7,3 °C 6,4 km/h (2 Bft)
04.11.2019 02:57 7,3 °C 81 % 994,3 hPa 0,0 mm 5,4 km/h (1 Bft) W-SW 253 ° 0 min 0,000 mm 0,0 UV-I 0 W/m² 4,3 °C 6,6 °C 6,4 km/h (2 Bft)
04.11.2019 02:58 7,3 °C 81 % 994,3 hPa 0,0 mm 7,4 km/h (2 Bft) SW 235 ° 0 min 0,000 mm 0,0 UV-I 0 W/m² 4,3 °C 6,0 °C 12,9 km/h (3 Bft)
04.11.2019 02:59 7,3 °C 81 % 994,3 hPa 0,0 mm 4,0 km/h (1 Bft) W-SW 240 ° 0 min 0,000 mm 0,0 UV-I 0 W/m² 4,3 °C 7,3 °C 4,8 km/h (1 Bft)
04.11.2019 03:00 7,3 °C 81 % 994,3 hPa 0,0 mm 5,8 km/h (2 Bft) S 178 ° 0 min 0,025 mm 0,0 UV-I 0 W/m² 4,3 °C 6,4 °C 9,7 km/h (2 Bft)
04.11.2019 03:01 7,3 °C 81 % 994,3 hPa 0,0 mm 6,1 km/h (2 Bft) W-SW 244 ° 0 min 0,000 mm 0,0 UV-I 0 W/m² 4,3 °C 6,3 °C 12,9 km/h (3 Bft)
04.11.2019 03:02 7,3 °C 81 % 994,3 hPa 0,0 mm 5,8 km/h (2 Bft) SW 229 ° 0 min 0,000 mm 0,0 UV-I 0 W/m² 4,3 °C 6,4 °C 9,7 km/h (2 Bft)
04.11.2019 03:03 7,3 °C 81 % 994,3 hPa 0,0 mm 8,0 km/h (2 Bft) SW 219 ° 0 min 0,000 mm 0,0 UV-I 0 W/m² 4,3 °C 5,8 °C 12,9 km/h (3 Bft)
04.11.2019 03:04 7,3 °C 81 % 994,3 hPa 0,0 mm 4,4 km/h (1 Bft) S 188 ° 0 min 0,000 mm 0,0 UV-I 0 W/m² 4,3 °C 7,3 °C 4,8 km/h (1 Bft)
04.11.2019 03:05 7,3 °C 81 % 994,3 hPa 0,0 mm 4,5 km/h (1 Bft) S-SW 194 ° 0 min 0,000 mm 0,0 UV-I 0 W/m² 4,3 °C 7,3 °C 6,4 km/h (2 Bft)
04.11.2019 03:06 7,3 °C 81 % 994,3 hPa 0,0 mm 4,9 km/h (1 Bft) SW 217 ° 0 min 0,000 mm 0,0 UV-I 0 W/m² 4,3 °C 6,7 °C 8,0 km/h (2 Bft)
04.11.2019 03:07 7,3 °C 81 % 994,3 hPa 0,0 mm 1,2 km/h (1 Bft) SW 218 ° 0 min 0,000 mm 0,0 UV-I 0 W/m² 4,3 °C 7,3 °C 3,2 km/h (1 Bft)
04.11.2019 03:08 7,3 °C 81 % 994,4 hPa 0,0 mm 9,6 km/h (2 Bft) SW 219 ° 0 min 0,000 mm 0,0 UV-I 0 W/m² 4,3 °C 5,5 °C 16,1 km/h (3 Bft)
04.11.2019 03:09 7,3 °C 81 % 994,4 hPa 0,0 mm 5,5 km/h (1 Bft) S-SW 198 ° 0 min 0,000 mm 0,0 UV-I 0 W/m² 4,3 °C 6,5 °C 8,0 km/h (2 Bft)
04.11.2019 03:10 7,3 °C 81 % 994,4 hPa 0,0 mm 6,2 km/h (2 Bft) SW 218 ° 0 min 0,000 mm 0,0 UV-I 0 W/m² 4,3 °C 6,3 °C 9,7 km/h (2 Bft)
04.11.2019 03:11 7,3 °C 81 % 994,3 hPa 0,0 mm 4,2 km/h (1 Bft) SW 233 ° 0 min 0,000 mm 0,0 UV-I 0 W/m² 4,3 °C 7,3 °C 6,4 km/h (2 Bft)
04.11.2019 03:12 7,3 °C 81 % 994,4 hPa 0,0 mm 4,4 km/h (1 Bft) W-SW 246 ° 0 min 0,000 mm 0,0 UV-I 0 W/m² 4,3 °C 7,3 °C 6,4 km/h (2 Bft)
04.11.2019 03:13 7,3 °C 81 % 994,4 hPa 0,0 mm 5,8 km/h (2 Bft) W-SW 258 ° 0 min 0,000 mm 0,0 UV-I 0 W/m² 4,3 °C 6,4 °C 8,0 km/h (2 Bft)
04.11.2019 03:14 7,3 °C 81 % 994,4 hPa 0,0 mm 3,2 km/h (1 Bft) W 259 ° 0 min 0,000 mm 0,0 UV-I 0 W/m² 4,3 °C 7,3 °C 6,4 km/h (2 Bft)
04.11.2019 03:15 7,3 °C 81 % 994,4 hPa 0,0 mm 2,1 km/h (1 Bft) W 259 ° 0 min 0,000 mm 0,0 UV-I 0 W/m² 4,3 °C 7,3 °C 3,2 km/h (1 Bft)
04.11.2019 03:16 7,3 °C 81 % 994,4 hPa 0,0 mm 3,0 km/h (1 Bft) W-SW 258 ° 0 min 0,000 mm 0,0 UV-I 0 W/m² 4,3 °C 7,3 °C 4,8 km/h (1 Bft)
04.11.2019 03:17 7,3 °C 81 % 994,4 hPa 0,0 mm 6,5 km/h (2 Bft) SW 224 ° 0 min 0,000 mm 0,0 UV-I 0 W/m² 4,3 °C 6,2 °C 11,3 km/h (2 Bft)
04.11.2019 03:18 7,4 °C 81 % 994,4 hPa 0,0 mm 4,7 km/h (1 Bft) S-SW 211 ° 0 min 0,000 mm 0,0 UV-I 0 W/m² 4,4 °C 6,9 °C 11,3 km/h (2 Bft)
04.11.2019 03:19 7,4 °C 81 % 994,4 hPa 0,0 mm 3,4 km/h (1 Bft) S-SW 196 ° 0 min 0,000 mm 0,0 UV-I 0 W/m² 4,4 °C 7,4 °C 8,0 km/h (2 Bft)
04.11.2019 03:20 7,3 °C 81 % 994,4 hPa 0,0 mm 4,3 km/h (1 Bft) S 191 ° 0 min 0,000 mm 0,0 UV-I 0 W/m² 4,3 °C 7,3 °C 6,4 km/h (2 Bft)
04.11.2019 03:21 7,4 °C 81 % 994,4 hPa 0,0 mm 4,2 km/h (1 Bft) S-SO 163 ° 0 min 0,000 mm 0,0 UV-I 0 W/m² 4,4 °C 7,4 °C 9,7 km/h (2 Bft)
04.11.2019 03:22 7,4 °C 82 % 994,4 hPa 0,0 mm 7,2 km/h (2 Bft) W-SW 246 ° 0 min 0,000 mm 0,0 UV-I 0 W/m² 4,5 °C 6,1 °C 9,7 km/h (2 Bft)
04.11.2019 03:23 7,4 °C 81 % 994,4 hPa 0,0 mm 5,0 km/h (1 Bft) SW 235 ° 0 min 0,000 mm 0,0 UV-I 0 W/m² 4,4 °C 6,8 °C 9,7 km/h (2 Bft)
04.11.2019 03:24 7,4 °C 81 % 994,4 hPa 0,0 mm 2,7 km/h (1 Bft) SW 235 ° 0 min 0,000 mm 0,0 UV-I 0 W/m² 4,4 °C 7,4 °C 4,8 km/h (1 Bft)
04.11.2019 03:25 7,4 °C 81 % 994,4 hPa 0,0 mm 1,9 km/h (1 Bft) SW 235 ° 0 min 0,000 mm 0,0 UV-I 0 W/m² 4,4 °C 7,4 °C 3,2 km/h (1 Bft)
04.11.2019 03:26 7,4 °C 81 % 994,4 hPa 0,0 mm 3,5 km/h (1 Bft) SW 235 ° 0 min 0,000 mm 0,0 UV-I 0 W/m² 4,4 °C 7,4 °C 4,8 km/h (1 Bft)
04.11.2019 03:27 7,4 °C 82 % 994,4 hPa 0,0 mm 3,5 km/h (1 Bft) W-SW 240 ° 0 min 0,000 mm 0,0 UV-I 0 W/m² 4,5 °C 7,4 °C 6,4 km/h (2 Bft)
04.11.2019 03:28 7,4 °C 81 % 994,4 hPa 0,0 mm 3,1 km/h (1 Bft) SW 236 ° 0 min 0,000 mm 0,0 UV-I 0 W/m² 4,4 °C 7,4 °C 6,4 km/h (2 Bft)
04.11.2019 03:29 7,4 °C 81 % 994,4 hPa 0,0 mm 4,5 km/h (1 Bft) S-SW 199 ° 0 min 0,000 mm 0,0 UV-I 0 W/m² 4,4 °C 7,4 °C 6,4 km/h (2 Bft)
04.11.2019 03:30 7,4 °C 81 % 994,4 hPa 0,0 mm 7,1 km/h (2 Bft) S-SW 197 ° 0 min 0,000 mm 0,0 UV-I 0 W/m² 4,4 °C 6,2 °C 9,7 km/h (2 Bft)
04.11.2019 03:31 7,4 °C 81 % 994,3 hPa 0,0 mm 5,1 km/h (1 Bft) SW 222 ° 0 min 0,000 mm 0,0 UV-I 0 W/m² 4,4 °C 6,8 °C 8,0 km/h (2 Bft)
04.11.2019 03:32 7,4 °C 81 % 994,4 hPa 0,0 mm 5,6 km/h (1 Bft) SW 231 ° 0 min 0,000 mm 0,0 UV-I 0 W/m² 4,4 °C 6,6 °C 8,0 km/h (2 Bft)
04.11.2019 03:33 7,4 °C 81 % 994,4 hPa 0,0 mm 5,3 km/h (1 Bft) S-SW 199 ° 0 min 0,000 mm 0,0 UV-I 0 W/m² 4,4 °C 6,7 °C 8,0 km/h (2 Bft)
04.11.2019 03:34 7,4 °C 81 % 994,4 hPa 0,0 mm 2,5 km/h (1 Bft) S-SW 206 ° 0 min 0,000 mm 0,0 UV-I 0 W/m² 4,4 °C 7,4 °C 4,8 km/h (1 Bft)
04.11.2019 03:35 7,4 °C 81 % 994,4 hPa 0,0 mm 8,5 km/h (2 Bft) S-SW 199 ° 0 min 0,000 mm 0,0 UV-I 0 W/m² 4,4 °C 5,8 °C 14,5 km/h (3 Bft)
04.11.2019 03:36 7,4 °C 81 % 994,4 hPa 0,0 mm 6,0 km/h (2 Bft) S-SW 212 ° 0 min 0,000 mm 0,0 UV-I 0 W/m² 4,4 °C 6,5 °C 9,7 km/h (2 Bft)
04.11.2019 03:37 7,4 °C 81 % 994,4 hPa 0,0 mm 5,4 km/h (1 Bft) S-SW 197 ° 0 min 0,000 mm 0,0 UV-I 0 W/m² 4,4 °C 6,7 °C 9,7 km/h (2 Bft)
04.11.2019 03:38 7,4 °C 81 % 994,3 hPa 0,0 mm 5,8 km/h (2 Bft) S 188 ° 0 min 0,000 mm 0,0 UV-I 0 W/m² 4,4 °C 6,5 °C 9,7 km/h (2 Bft)
04.11.2019 03:39 7,4 °C 81 % 994,3 hPa 0,0 mm 8,0 km/h (2 Bft) S 182 ° 0 min 0,000 mm 0,0 UV-I 0 W/m² 4,4 °C 6,0 °C 11,3 km/h (2 Bft)
04.11.2019 03:40 7,4 °C 81 % 994,4 hPa 0,0 mm 7,2 km/h (2 Bft) S-SW 198 ° 0 min 0,000 mm 0,0 UV-I 0 W/m² 4,4 °C 6,1 °C 11,3 km/h (2 Bft)
04.11.2019 03:41 7,4 °C 81 % 994,4 hPa 0,0 mm 9,1 km/h (2 Bft) SW 227 ° 0 min 0,000 mm 0,0 UV-I 0 W/m² 4,4 °C 5,7 °C 16,1 km/h (3 Bft)
04.11.2019 03:42 7,4 °C 80 % 994,4 hPa 0,0 mm 5,7 km/h (1 Bft) SW 221 ° 0 min 0,000 mm 0,0 UV-I 0 W/m² 4,2 °C 6,6 °C 11,3 km/h (2 Bft)
04.11.2019 03:43 7,4 °C 80 % 994,3 hPa 0,0 mm 6,7 km/h (2 Bft) S-SW 211 ° 0 min 0,000 mm 0,0 UV-I 0 W/m² 4,2 °C 6,3 °C 11,3 km/h (2 Bft)
04.11.2019 03:44 7,4 °C 81 % 994,3 hPa 0,0 mm 5,1 km/h (1 Bft) W-SW 248 ° 0 min 0,000 mm 0,0 UV-I 0 W/m² 4,4 °C 6,8 °C 8,0 km/h (2 Bft)
04.11.2019 03:45 7,3 °C 81 % 994,4 hPa 0,0 mm 2,4 km/h (1 Bft) W-SW 248 ° 0 min 0,000 mm 0,0 UV-I 0 W/m² 4,3 °C 7,3 °C 4,8 km/h (1 Bft)
04.11.2019 03:46 7,3 °C 81 % 994,3 hPa 0,0 mm 3,5 km/h (1 Bft) W-SW 248 ° 0 min 0,000 mm 0,0 UV-I 0 W/m² 4,3 °C 7,3 °C 4,8 km/h (1 Bft)
04.11.2019 03:47 7,3 °C 81 % 994,2 hPa 0,0 mm 5,0 km/h (1 Bft) S-SW 196 ° 0 min 0,000 mm 0,0 UV-I 0 W/m² 4,3 °C 6,7 °C 9,7 km/h (2 Bft)
04.11.2019 03:48 7,3 °C 80 % 994,4 hPa 0,0 mm 5,4 km/h (1 Bft) S-SW 196 ° 0 min 0,000 mm 0,0 UV-I 0 W/m² 4,1 °C 6,6 °C 8,0 km/h (2 Bft)
04.11.2019 03:49 7,3 °C 80 % 994,4 hPa 0,0 mm 3,0 km/h (1 Bft) S-SW 196 ° 0 min 0,000 mm 0,0 UV-I 0 W/m² 4,1 °C 7,3 °C 4,8 km/h (1 Bft)
04.11.2019 03:50 7,3 °C 80 % 994,4 hPa 0,0 mm 3,6 km/h (1 Bft) SW 215 ° 0 min 0,000 mm 0,0 UV-I 0 W/m² 4,1 °C 7,3 °C 6,4 km/h (2 Bft)
04.11.2019 03:51 7,3 °C 80 % 994,4 hPa 0,0 mm 4,6 km/h (1 Bft) SW 218 ° 0 min 0,000 mm 0,0 UV-I 0 W/m² 4,1 °C 6,8 °C 6,4 km/h (2 Bft)
04.11.2019 03:52 7,3 °C 80 % 994,4 hPa 0,0 mm 2,7 km/h (1 Bft) SW 217 ° 0 min 0,000 mm 0,0 UV-I 0 W/m² 4,1 °C 7,3 °C 6,4 km/h (2 Bft)
04.11.2019 03:53 7,3 °C 80 % 994,4 hPa 0,0 mm 4,9 km/h (1 Bft) W-SW 237 ° 0 min 0,000 mm 0,0 UV-I 0 W/m² 4,1 °C 6,7 °C 8,0 km/h (2 Bft)
04.11.2019 03:54 7,3 °C 80 % 994,4 hPa 0,0 mm 7,0 km/h (2 Bft) S 191 ° 0 min 0,000 mm 0,0 UV-I 0 W/m² 4,1 °C 6,1 °C 11,3 km/h (2 Bft)
04.11.2019 03:55 7,3 °C 80 % 994,4 hPa 0,0 mm 6,8 km/h (2 Bft) S 188 ° 0 min 0,000 mm 0,0 UV-I 0 W/m² 4,1 °C 6,1 °C 8,0 km/h (2 Bft)
04.11.2019 03:56 7,3 °C 80 % 994,4 hPa 0,0 mm 4,7 km/h (1 Bft) S-SW 202 ° 0 min 0,000 mm 0,0 UV-I 0 W/m² 4,1 °C 6,8 °C 8,0 km/h (2 Bft)
04.11.2019 03:57 7,3 °C 80 % 994,4 hPa 0,0 mm 6,3 km/h (2 Bft) SW 215 ° 0 min 0,000 mm 0,0 UV-I 0 W/m² 4,1 °C 6,3 °C 9,7 km/h (2 Bft)
04.11.2019 03:58 7,3 °C 80 % 994,4 hPa 0,0 mm 5,0 km/h (1 Bft) S-SW 207 ° 0 min 0,000 mm 0,0 UV-I 0 W/m² 4,1 °C 6,7 °C 8,0 km/h (2 Bft)
04.11.2019 03:59 7,3 °C 80 % 994,4 hPa 0,0 mm 5,4 km/h (1 Bft) S-SW 207 ° 0 min 0,000 mm 0,0 UV-I 0 W/m² 4,1 °C 6,6 °C 11,3 km/h (2 Bft)
04.11.2019 04:00 7,3 °C 80 % 994,4 hPa 0,0 mm 5,6 km/h (1 Bft) S-SW 211 ° 0 min 0,000 mm 0,0 UV-I 0 W/m² 4,1 °C 6,5 °C 8,0 km/h (2 Bft)
04.11.2019 04:01 7,3 °C 80 % 994,4 hPa 0,0 mm 6,4 km/h (2 Bft) S-SW 200 ° 0 min 0,026 mm 0,0 UV-I 0 W/m² 4,1 °C 6,3 °C 6,4 km/h (2 Bft)
04.11.2019 04:02 7,3 °C 80 % 994,4 hPa 0,0 mm 8,0 km/h (2 Bft) SW 225 ° 0 min 0,000 mm 0,0 UV-I 0 W/m² 4,1 °C 5,8 °C 12,9 km/h (3 Bft)
04.11.2019 04:03 7,3 °C 80 % 994,4 hPa 0,0 mm 4,8 km/h (1 Bft) SW 225 ° 0 min 0,000 mm 0,0 UV-I 0 W/m² 4,1 °C 6,8 °C 9,7 km/h (2 Bft)
04.11.2019 04:04 7,3 °C 80 % 994,4 hPa 0,0 mm 4,8 km/h (1 Bft) SW 225 ° 0 min 0,000 mm 0,0 UV-I 0 W/m² 4,1 °C 6,8 °C 8,0 km/h (2 Bft)
04.11.2019 04:05 7,3 °C 80 % 994,4 hPa 0,0 mm 4,8 km/h (1 Bft) S-SW 202 ° 0 min 0,000 mm 0,0 UV-I 0 W/m² 4,1 °C 6,8 °C 6,4 km/h (2 Bft)
04.11.2019 04:06 7,4 °C 80 % 994,4 hPa 0,0 mm 8,0 km/h (2 Bft) S-SW 202 ° 0 min 0,000 mm 0,0 UV-I 0 W/m² 4,2 °C 6,0 °C 11,3 km/h (2 Bft)
04.11.2019 04:07 7,3 °C 80 % 994,4 hPa 0,0 mm 3,2 km/h (1 Bft) SW 225 ° 0 min 0,000 mm 0,0 UV-I 0 W/m² 4,1 °C 7,3 °C 8,0 km/h (2 Bft)
04.11.2019 04:08 7,3 °C 80 % 994,4 hPa 0,0 mm 6,4 km/h (2 Bft) S 180 ° 0 min 0,000 mm 0,0 UV-I 0 W/m² 4,1 °C 6,3 °C 8,0 km/h (2 Bft)
04.11.2019 04:12 7,3 °C 80 % 994,4 hPa 0,0 mm 3,3 km/h (1 Bft) S 180 ° 0 min 0,000 mm 0,0 UV-I 0 W/m² 4,1 °C 7,3 °C 14,5 km/h (3 Bft)
04.11.2019 04:13 7,3 °C 80 % 994,4 hPa 0,0 mm 6,5 km/h (2 Bft) S-SW 205 ° 0 min 0,000 mm 0,0 UV-I 0 W/m² 4,1 °C 6,2 °C 11,3 km/h (2 Bft)
04.11.2019 04:14 7,3 °C 80 % 994,4 hPa 0,0 mm 7,2 km/h (2 Bft) S 188 ° 0 min 0,000 mm 0,0 UV-I 0 W/m² 4,1 °C 6,0 °C 16,1 km/h (3 Bft)
04.11.2019 04:15 7,3 °C 80 % 994,4 hPa 0,0 mm 7,1 km/h (2 Bft) SW 234 ° 0 min 0,000 mm 0,0 UV-I 0 W/m² 4,1 °C 6,1 °C 12,9 km/h (3 Bft)
04.11.2019 04:16 7,3 °C 80 % 994,4 hPa 0,0 mm 5,1 km/h (1 Bft) S 189 ° 0 min 0,000 mm 0,0 UV-I 0 W/m² 4,1 °C 6,7 °C 6,4 km/h (2 Bft)
04.11.2019 04:17 7,3 °C 80 % 994,4 hPa 0,0 mm 2,7 km/h (1 Bft) SW 235 ° 0 min 0,000 mm 0,0 UV-I 0 W/m² 4,1 °C 7,3 °C 4,8 km/h (1 Bft)
04.11.2019 04:18 7,3 °C 80 % 994,4 hPa 0,0 mm 2,7 km/h (1 Bft) SW 235 ° 0 min 0,000 mm 0,0 UV-I 0 W/m² 4,1 °C 7,3 °C 4,8 km/h (1 Bft)
04.11.2019 04:19 7,3 °C 80 % 994,4 hPa 0,0 mm 1,7 km/h (1 Bft) SW 235 ° 0 min 0,000 mm 0,0 UV-I 0 W/m² 4,1 °C 7,3 °C 3,2 km/h (1 Bft)
04.11.2019 04:20 7,2 °C 80 % 994,4 hPa 0,0 mm 4,9 km/h (1 Bft) S-SO 167 ° 0 min 0,000 mm 0,0 UV-I 0 W/m² 4,0 °C 6,6 °C 8,0 km/h (2 Bft)
04.11.2019 04:21 7,2 °C 80 % 994,5 hPa 0,0 mm 2,8 km/h (1 Bft) S-SO 167 ° 0 min 0,000 mm 0,0 UV-I 0 W/m² 4,0 °C 7,2 °C 4,8 km/h (1 Bft)
04.11.2019 04:22 7,2 °C 80 % 994,5 hPa 0,0 mm 3,8 km/h (1 Bft) S-SO 167 ° 0 min 0,000 mm 0,0 UV-I 0 W/m² 4,0 °C 7,2 °C 4,8 km/h (1 Bft)
04.11.2019 04:23 7,2 °C 80 % 994,4 hPa 0,0 mm 4,4 km/h (1 Bft) W-SW 239 ° 0 min 0,000 mm 0,0 UV-I 0 W/m² 4,0 °C 7,2 °C 6,4 km/h (2 Bft)
04.11.2019 04:24 7,2 °C 80 % 994,5 hPa 0,0 mm 5,2 km/h (1 Bft) S-SW 213 ° 0 min 0,000 mm 0,0 UV-I 0 W/m² 4,0 °C 6,5 °C 8,0 km/h (2 Bft)
04.11.2019 04:25 7,2 °C 80 % 994,5 hPa 0,0 mm 3,9 km/h (1 Bft) S-SW 208 ° 0 min 0,000 mm 0,0 UV-I 0 W/m² 4,0 °C 7,2 °C 6,4 km/h (2 Bft)
04.11.2019 04:26 7,2 °C 80 % 994,5 hPa 0,0 mm 2,6 km/h (1 Bft) S-SW 208 ° 0 min 0,000 mm 0,0 UV-I 0 W/m² 4,0 °C 7,2 °C 4,8 km/h (1 Bft)
04.11.2019 04:27 7,2 °C 80 % 994,5 hPa 0,0 mm 0,0 km/h (0 Bft) S-SW 208 ° 0 min 0,000 mm 0,0 UV-I 0 W/m² 4,0 °C 7,2 °C 0,0 km/h (0 Bft)
04.11.2019 04:28 7,1 °C 80 % 994,4 hPa 0,0 mm 3,5 km/h (1 Bft) SW 215 ° 0 min 0,000 mm 0,0 UV-I 0 W/m² 3,9 °C 7,1 °C 6,4 km/h (2 Bft)
04.11.2019 04:29 7,1 °C 80 % 994,4 hPa 0,0 mm 3,7 km/h (1 Bft) SW 225 ° 0 min 0,000 mm 0,0 UV-I 0 W/m² 3,9 °C 7,1 °C 4,8 km/h (1 Bft)
04.11.2019 04:30 7,1 °C 80 % 994,5 hPa 0,0 mm 6,5 km/h (2 Bft) S-SW 207 ° 0 min 0,000 mm 0,0 UV-I 0 W/m² 3,9 °C 6,0 °C 14,5 km/h (3 Bft)
04.11.2019 04:31 7,1 °C 80 % 994,5 hPa 0,0 mm 4,5 km/h (1 Bft) S-SW 206 ° 0 min 0,000 mm 0,0 UV-I 0 W/m² 3,9 °C 7,1 °C 8,0 km/h (2 Bft)
04.11.2019 04:32 7,1 °C 80 % 994,4 hPa 0,0 mm 6,9 km/h (2 Bft) SW 228 ° 0 min 0,000 mm 0,0 UV-I 0 W/m² 3,9 °C 5,9 °C 11,3 km/h (2 Bft)
04.11.2019 04:33 7,1 °C 80 % 994,5 hPa 0,0 mm 5,0 km/h (1 Bft) S-SW 213 ° 0 min 0,000 mm 0,0 UV-I 0 W/m² 3,9 °C 6,5 °C 8,0 km/h (2 Bft)
04.11.2019 04:34 7,1 °C 80 % 994,4 hPa 0,0 mm 5,5 km/h (1 Bft) S 176 ° 0 min 0,000 mm 0,0 UV-I 0 W/m² 3,9 °C 6,3 °C 8,0 km/h (2 Bft)
04.11.2019 04:35 7,1 °C 80 % 994,4 hPa 0,0 mm 3,7 km/h (1 Bft) S-SW 204 ° 0 min 0,000 mm 0,0 UV-I 0 W/m² 3,9 °C 7,1 °C 6,4 km/h (2 Bft)
04.11.2019 04:36 7,1 °C 80 % 994,4 hPa 0,0 mm 5,7 km/h (1 Bft) S-SW 197 ° 0 min 0,000 mm 0,0 UV-I 0 W/m² 3,9 °C 6,2 °C 12,9 km/h (3 Bft)
04.11.2019 04:37 7,1 °C 80 % 994,4 hPa 0,0 mm 6,9 km/h (2 Bft) S 186 ° 0 min 0,000 mm 0,0 UV-I 0 W/m² 3,9 °C 5,9 °C 9,7 km/h (2 Bft)
04.11.2019 04:38 7,1 °C 80 % 994,5 hPa 0,0 mm 5,6 km/h (1 Bft) SW 214 ° 0 min 0,000 mm 0,0 UV-I 0 W/m² 3,9 °C 6,3 °C 8,0 km/h (2 Bft)
04.11.2019 04:39 7,1 °C 80 % 994,5 hPa 0,0 mm 4,9 km/h (1 Bft) S-SW 201 ° 0 min 0,000 mm 0,0 UV-I 0 W/m² 3,9 °C 6,5 °C 8,0 km/h (2 Bft)
04.11.2019 04:40 7,1 °C 80 % 994,5 hPa 0,0 mm 4,8 km/h (1 Bft) SW 222 ° 0 min 0,000 mm 0,0 UV-I 0 W/m² 3,9 °C 6,5 °C 8,0 km/h (2 Bft)
04.11.2019 04:41 7,1 °C 80 % 994,5 hPa 0,0 mm 3,9 km/h (1 Bft) SW 222 ° 0 min 0,000 mm 0,0 UV-I 0 W/m² 3,9 °C 7,1 °C 4,8 km/h (1 Bft)
04.11.2019 04:42 7,1 °C 80 % 994,5 hPa 0,0 mm 4,5 km/h (1 Bft) SW 221 ° 0 min 0,000 mm 0,0 UV-I 0 W/m² 3,9 °C 7,1 °C 4,8 km/h (1 Bft)
04.11.2019 04:43 7,1 °C 80 % 994,5 hPa 0,0 mm 4,3 km/h (1 Bft) S-SW 204 ° 0 min 0,000 mm 0,0 UV-I 0 W/m² 3,9 °C 7,1 °C 6,4 km/h (2 Bft)
04.11.2019 04:44 7,1 °C 80 % 994,5 hPa 0,0 mm 6,9 km/h (2 Bft) SW 218 ° 0 min 0,000 mm 0,0 UV-I 0 W/m² 3,9 °C 5,9 °C 9,7 km/h (2 Bft)
04.11.2019 04:45 7,1 °C 79 % 994,6 hPa 0,0 mm 4,7 km/h (1 Bft) W 259 ° 0 min 0,000 mm 0,0 UV-I 0 W/m² 3,7 °C 6,6 °C 6,4 km/h (2 Bft)
04.11.2019 04:46 7,2 °C 79 % 994,6 hPa 0,0 mm 7,3 km/h (2 Bft) S-SW 199 ° 0 min 0,000 mm 0,0 UV-I 0 W/m² 3,8 °C 5,9 °C 12,9 km/h (3 Bft)
04.11.2019 04:47 7,1 °C 80 % 994,5 hPa 0,0 mm 6,4 km/h (2 Bft) S-SW 205 ° 0 min 0,000 mm 0,0 UV-I 0 W/m² 3,9 °C 6,0 °C 8,0 km/h (2 Bft)
04.11.2019 04:48 7,2 °C 80 % 994,5 hPa 0,0 mm 8,1 km/h (2 Bft) S-SW 202 ° 0 min 0,000 mm 0,0 UV-I 0 W/m² 4,0 °C 5,7 °C 11,3 km/h (2 Bft)
04.11.2019 04:49 7,1 °C 80 % 994,6 hPa 0,0 mm 2,8 km/h (1 Bft) S-SW 202 ° 0 min 0,000 mm 0,0 UV-I 0 W/m² 3,9 °C 7,1 °C 6,4 km/h (2 Bft)
04.11.2019 04:50 7,1 °C 80 % 994,6 hPa 0,0 mm 3,3 km/h (1 Bft) S-SW 192 ° 0 min 0,000 mm 0,0 UV-I 0 W/m² 3,9 °C 7,1 °C 6,4 km/h (2 Bft)
04.11.2019 04:51 7,1 °C 80 % 994,6 hPa 0,0 mm 4,7 km/h (1 Bft) W-SW 252 ° 0 min 0,000 mm 0,0 UV-I 0 W/m² 3,9 °C 6,6 °C 6,4 km/h (2 Bft)
04.11.2019 04:52 7,1 °C 80 % 994,6 hPa 0,0 mm 2,8 km/h (1 Bft) W-SW 252 ° 0 min 0,000 mm 0,0 UV-I 0 W/m² 3,9 °C 7,1 °C 4,8 km/h (1 Bft)
04.11.2019 04:53 7,1 °C 80 % 994,6 hPa 0,0 mm 2,8 km/h (1 Bft) W-SW 252 ° 0 min 0,000 mm 0,0 UV-I 0 W/m² 3,9 °C 7,1 °C 4,8 km/h (1 Bft)
04.11.2019 04:54 7,1 °C 80 % 994,6 hPa 0,0 mm 5,8 km/h (2 Bft) S 174 ° 0 min 0,000 mm 0,0 UV-I 0 W/m² 3,9 °C 6,2 °C 8,0 km/h (2 Bft)
04.11.2019 04:55 7,1 °C 80 % 994,6 hPa 0,0 mm 4,7 km/h (1 Bft) S 182 ° 0 min 0,000 mm 0,0 UV-I 0 W/m² 3,9 °C 6,6 °C 8,0 km/h (2 Bft)
04.11.2019 04:56 7,0 °C 80 % 994,6 hPa 0,0 mm 5,4 km/h (1 Bft) S-SW 192 ° 0 min 0,000 mm 0,0 UV-I 0 W/m² 3,8 °C 6,2 °C 6,4 km/h (2 Bft)
04.11.2019 04:57 6,9 °C 80 % 994,6 hPa 0,0 mm 6,0 km/h (2 Bft) S-SW 196 ° 0 min 0,000 mm 0,0 UV-I 0 W/m² 3,7 °C 5,9 °C 8,0 km/h (2 Bft)
04.11.2019 04:58 6,9 °C 80 % 994,7 hPa 0,0 mm 4,8 km/h (1 Bft) S 188 ° 0 min 0,000 mm 0,0 UV-I 0 W/m² 3,7 °C 6,3 °C 6,4 km/h (2 Bft)
04.11.2019 04:59 6,9 °C 80 % 994,7 hPa 0,0 mm 4,0 km/h (1 Bft) S-SW 192 ° 0 min 0,000 mm 0,0 UV-I 0 W/m² 3,7 °C 6,9 °C 6,4 km/h (2 Bft)
04.11.2019 05:00 6,8 °C 80 % 994,7 hPa 0,0 mm 3,5 km/h (1 Bft) S 187 ° 0 min 0,025 mm 0,0 UV-I 0 W/m² 3,6 °C 6,8 °C 6,4 km/h (2 Bft)
04.11.2019 05:01 6,8 °C 80 % 994,6 hPa 0,0 mm 3,9 km/h (1 Bft) S 188 ° 0 min 0,000 mm 0,0 UV-I 0 W/m² 3,6 °C 6,8 °C 4,8 km/h (1 Bft)
04.11.2019 05:02 6,8 °C 81 % 994,6 hPa 0,0 mm 3,5 km/h (1 Bft) S 187 ° 0 min 0,000 mm 0,0 UV-I 0 W/m² 3,8 °C 6,8 °C 4,8 km/h (1 Bft)
04.11.2019 05:03 6,7 °C 81 % 994,6 hPa 0,0 mm 2,6 km/h (1 Bft) S 187 ° 0 min 0,000 mm 0,0 UV-I 0 W/m² 3,7 °C 6,7 °C 3,2 km/h (1 Bft)
04.11.2019 05:04 6,7 °C 81 % 994,7 hPa 0,0 mm 2,6 km/h (1 Bft) S 188 ° 0 min 0,000 mm 0,0 UV-I 0 W/m² 3,7 °C 6,7 °C 3,2 km/h (1 Bft)
04.11.2019 05:05 6,7 °C 81 % 994,7 hPa 0,0 mm 2,8 km/h (1 Bft) S 188 ° 0 min 0,000 mm 0,0 UV-I 0 W/m² 3,7 °C 6,7 °C 4,8 km/h (1 Bft)
04.11.2019 05:06 6,7 °C 81 % 994,7 hPa 0,0 mm 3,8 km/h (1 Bft) S-SW 210 ° 0 min 0,000 mm 0,0 UV-I 0 W/m² 3,7 °C 6,7 °C 6,4 km/h (2 Bft)
04.11.2019 05:07 6,6 °C 81 % 994,7 hPa 0,0 mm 3,9 km/h (1 Bft) S 190 ° 0 min 0,000 mm 0,0 UV-I 0 W/m² 3,6 °C 6,6 °C 8,0 km/h (2 Bft)
04.11.2019 05:08 6,5 °C 81 % 994,7 hPa 0,0 mm 4,3 km/h (1 Bft) S 190 ° 0 min 0,000 mm 0,0 UV-I 0 W/m² 3,5 °C 6,5 °C 6,4 km/h (2 Bft)
04.11.2019 05:09 6,5 °C 81 % 994,7 hPa 0,0 mm 4,2 km/h (1 Bft) S 190 ° 0 min 0,000 mm 0,0 UV-I 0 W/m² 3,5 °C 6,5 °C 4,8 km/h (1 Bft)
04.11.2019 05:10 6,4 °C 81 % 994,7 hPa 0,0 mm 3,6 km/h (1 Bft) S 190 ° 0 min 0,000 mm 0,0 UV-I 0 W/m² 3,4 °C 6,4 °C 4,8 km/h (1 Bft)
04.11.2019 05:11 6,4 °C 82 % 994,7 hPa 0,0 mm 2,6 km/h (1 Bft) S 190 ° 0 min 0,000 mm 0,0 UV-I 0 W/m² 3,6 °C 6,4 °C 4,8 km/h (1 Bft)
04.11.2019 05:12 6,3 °C 82 % 994,7 hPa 0,0 mm 3,6 km/h (1 Bft) S 190 ° 0 min 0,000 mm 0,0 UV-I 0 W/m² 3,5 °C 6,3 °C 6,4 km/h (2 Bft)
04.11.2019 05:13 6,3 °C 82 % 994,7 hPa 0,0 mm 5,2 km/h (1 Bft) S-SW 198 ° 0 min 0,000 mm 0,0 UV-I 0 W/m² 3,5 °C 5,5 °C 6,4 km/h (2 Bft)
04.11.2019 05:14 6,3 °C 82 % 994,6 hPa 0,0 mm 5,1 km/h (1 Bft) S-SW 198 ° 0 min 0,000 mm 0,0 UV-I 0 W/m² 3,5 °C 5,5 °C 6,4 km/h (2 Bft)
04.11.2019 05:15 6,2 °C 82 % 994,7 hPa 0,0 mm 2,7 km/h (1 Bft) S-SW 198 ° 0 min 0,000 mm 0,0 UV-I 0 W/m² 3,4 °C 6,2 °C 4,8 km/h (1 Bft)
04.11.2019 05:16 6,2 °C 82 % 994,7 hPa 0,0 mm 3,3 km/h (1 Bft) S-SW 198 ° 0 min 0,000 mm 0,0 UV-I 0 W/m² 3,4 °C 6,2 °C 4,8 km/h (1 Bft)
04.11.2019 05:17 6,1 °C 82 % 994,7 hPa 0,0 mm 4,8 km/h (1 Bft) S-SW 192 ° 0 min 0,000 mm 0,0 UV-I 0 W/m² 3,3 °C 5,4 °C 6,4 km/h (2 Bft)
04.11.2019 05:18 6,1 °C 82 % 994,7 hPa 0,0 mm 3,4 km/h (1 Bft) S 175 ° 0 min 0,000 mm 0,0 UV-I 0 W/m² 3,3 °C 6,1 °C 6,4 km/h (2 Bft)
04.11.2019 05:19 6,1 °C 83 % 994,7 hPa 0,0 mm 5,7 km/h (1 Bft) S-SW 208 ° 0 min 0,000 mm 0,0 UV-I 0 W/m² 3,4 °C 5,1 °C 8,0 km/h (2 Bft)
04.11.2019 05:20 6,1 °C 83 % 994,7 hPa 0,0 mm 6,0 km/h (2 Bft) S-SW 207 ° 0 min 0,000 mm 0,0 UV-I 0 W/m² 3,4 °C 5,0 °C 8,0 km/h (2 Bft)
04.11.2019 05:21 6,0 °C 83 % 994,7 hPa 0,0 mm 4,3 km/h (1 Bft) S 188 ° 0 min 0,000 mm 0,0 UV-I 0 W/m² 3,3 °C 6,0 °C 8,0 km/h (2 Bft)
04.11.2019 05:22 5,9 °C 83 % 994,8 hPa 0,0 mm 6,6 km/h (2 Bft) S-SW 207 ° 0 min 0,000 mm 0,0 UV-I 0 W/m² 3,2 °C 4,6 °C 9,7 km/h (2 Bft)
04.11.2019 05:23 5,9 °C 83 % 994,7 hPa 0,0 mm 4,2 km/h (1 Bft) S-SW 212 ° 0 min 0,000 mm 0,0 UV-I 0 W/m² 3,2 °C 5,9 °C 8,0 km/h (2 Bft)
04.11.2019 05:24 5,9 °C 83 % 994,6 hPa 0,0 mm 3,9 km/h (1 Bft) S-SW 213 ° 0 min 0,000 mm 0,0 UV-I 0 W/m² 3,2 °C 5,9 °C 6,4 km/h (2 Bft)
04.11.2019 05:25 5,9 °C 83 % 994,6 hPa 0,0 mm 5,9 km/h (2 Bft) S 188 ° 0 min 0,000 mm 0,0 UV-I 0 W/m² 3,2 °C 4,8 °C 8,0 km/h (2 Bft)
04.11.2019 05:26 5,9 °C 83 % 994,7 hPa 0,0 mm 2,7 km/h (1 Bft) S 188 ° 0 min 0,000 mm 0,0 UV-I 0 W/m² 3,2 °C 5,9 °C 4,8 km/h (1 Bft)
04.11.2019 05:27 5,8 °C 83 % 994,7 hPa 0,0 mm 3,8 km/h (1 Bft) S-SW 207 ° 0 min 0,000 mm 0,0 UV-I 0 W/m² 3,1 °C 5,8 °C 6,4 km/h (2 Bft)
04.11.2019 05:28 5,8 °C 84 % 994,7 hPa 0,0 mm 4,0 km/h (1 Bft) S-SW 196 ° 0 min 0,000 mm 0,0 UV-I 0 W/m² 3,3 °C 5,8 °C 6,4 km/h (2 Bft)
04.11.2019 05:29 5,8 °C 84 % 994,7 hPa 0,0 mm 3,0 km/h (1 Bft) S-SW 196 ° 0 min 0,000 mm 0,0 UV-I 0 W/m² 3,3 °C 5,8 °C 4,8 km/h (1 Bft)
04.11.2019 05:30 5,8 °C 84 % 994,7 hPa 0,0 mm 4,5 km/h (1 Bft) S-SW 192 ° 0 min 0,000 mm 0,0 UV-I 0 W/m² 3,3 °C 5,8 °C 6,4 km/h (2 Bft)
04.11.2019 05:31 5,8 °C 84 % 994,6 hPa 0,0 mm 3,8 km/h (1 Bft) S 188 ° 0 min 0,000 mm 0,0 UV-I 0 W/m² 3,3 °C 5,8 °C 8,0 km/h (2 Bft)
04.11.2019 05:32 5,7 °C 84 % 994,6 hPa 0,0 mm 2,4 km/h (1 Bft) S 188 ° 0 min 0,000 mm 0,0 UV-I 0 W/m² 3,2 °C 5,7 °C 3,2 km/h (1 Bft)
04.11.2019 05:33 5,7 °C 84 % 994,6 hPa 0,0 mm 5,2 km/h (1 Bft) S-SW 203 ° 0 min 0,000 mm 0,0 UV-I 0 W/m² 3,2 °C 4,8 °C 6,4 km/h (2 Bft)
04.11.2019 05:34 5,7 °C 84 % 994,6 hPa 0,0 mm 4,3 km/h (1 Bft) S-SW 192 ° 0 min 0,000 mm 0,0 UV-I 0 W/m² 3,2 °C 5,7 °C 8,0 km/h (2 Bft)
04.11.2019 05:35 5,7 °C 84 % 994,6 hPa 0,0 mm 5,4 km/h (1 Bft) S-SW 193 ° 0 min 0,000 mm 0,0 UV-I 0 W/m² 3,2 °C 4,7 °C 8,0 km/h (2 Bft)
04.11.2019 05:36 5,7 °C 84 % 994,6 hPa 0,0 mm 4,4 km/h (1 Bft) S-SW 199 ° 0 min 0,000 mm 0,0 UV-I 0 W/m² 3,2 °C 5,7 °C 6,4 km/h (2 Bft)
04.11.2019 05:37 5,7 °C 84 % 994,6 hPa 0,0 mm 4,5 km/h (1 Bft) S-SW 193 ° 0 min 0,000 mm 0,0 UV-I 0 W/m² 3,2 °C 5,7 °C 6,4 km/h (2 Bft)
04.11.2019 05:38 5,7 °C 84 % 994,6 hPa 0,0 mm 4,4 km/h (1 Bft)